THY7BK LTFM-LTAC

Flight info

Callsign THY7BK
Flight time 0h 48m
Altitude 27000
Route VICEN1D/35L VICEN T380 ASMAP L333 LATGA
Aircraft A320/M-SDE3FGHIRWY/LB1

Departure

Time 2026-05-07 20:32
Airport İstanbul Airport (LTFM)

Arrival

Time 2026-05-07 21:20
Airport Esenboğa International Airport (LTAC)
Time Latitude Longitude Altitude Speed Heading
2026-05-07 19:45 41.26642 28.73434 334 ft 0 kts 71°
2026-05-07 20:20 41.26641 28.73427 330 ft 3 kts 70°
2026-05-07 20:20 41.26630 28.73394 330 ft 4 kts 62°
2026-05-07 20:21 41.26616 28.73365 333 ft 4 kts 41°
2026-05-07 20:21 41.26596 28.73353 332 ft 2 kts 346°
2026-05-07 20:21 41.26594 28.73353 332 ft 0 kts 345°
2026-05-07 20:28 41.26597 28.73351 334 ft 1 kts 332°
2026-05-07 20:28 41.26599 28.73340 330 ft 1 kts 284°
2026-05-07 20:28 41.26600 28.73302 334 ft 8 kts 271°
2026-05-07 20:28 41.26599 28.73222 334 ft 10 kts 269°
2026-05-07 20:29 41.26598 28.73123 333 ft 12 kts 269°
2026-05-07 20:29 41.26596 28.73003 331 ft 14 kts 269°
2026-05-07 20:29 41.26594 28.72863 334 ft 16 kts 268°
2026-05-07 20:29 41.26592 28.72704 334 ft 18 kts 269°
2026-05-07 20:30 41.26590 28.72585 334 ft 3 kts 273°
2026-05-07 20:30 41.26598 28.72553 334 ft 5 kts 300°
2026-05-07 20:30 41.26628 28.72523 333 ft 6 kts 335°
2026-05-07 20:30 41.26657 28.72516 334 ft 1 kts 354°
2026-05-07 20:31 41.26802 28.72512 334 ft 55 kts 359°
2026-05-07 20:31 41.27407 28.72496 332 ft 116 kts 359°
2026-05-07 20:31 41.28373 28.72470 330 ft 160 kts 359°
2026-05-07 20:31 41.29549 28.72458 784 ft 162 kts 359°
2026-05-07 20:32 41.30665 28.72459 1443 ft 160 kts 356°
2026-05-07 20:32 41.31785 28.72467 2011 ft 164 kts 355°
2026-05-07 20:32 41.32999 28.72469 2298 ft 185 kts 354°
2026-05-07 20:32 41.34364 28.72469 2512 ft 208 kts 354°
2026-05-07 20:33 41.35886 28.72464 2745 ft 230 kts 352°
2026-05-07 20:33 41.37420 28.71765 3066 ft 243 kts 316°
2026-05-07 20:33 41.38306 28.69862 3671 ft 249 kts 281°
2026-05-07 20:33 41.38485 28.67556 4496 ft 253 kts 270°
2026-05-07 20:34 41.38438 28.65220 5335 ft 257 kts 266°
2026-05-07 20:34 41.38324 28.62799 6162 ft 263 kts 266°
2026-05-07 20:34 41.38210 28.60379 6933 ft 268 kts 266°
2026-05-07 20:34 41.37793 28.57957 7677 ft 273 kts 243°
2026-05-07 20:35 41.36567 28.56021 8431 ft 279 kts 216°
2026-05-07 20:35 41.34752 28.55091 9184 ft 286 kts 186°
2026-05-07 20:35 41.32742 28.55058 9973 ft 290 kts 180°
2026-05-07 20:35 41.30702 28.55109 10576 ft 300 kts 180°
2026-05-07 20:36 41.28538 28.55183 10774 ft 323 kts 178°
2026-05-07 20:36 41.26244 28.55701 10901 ft 347 kts 164°
2026-05-07 20:36 41.23971 28.57025 11152 ft 365 kts 149°
2026-05-07 20:36 41.21952 28.59121 11695 ft 372 kts 136°
2026-05-07 20:37 41.20078 28.61528 12311 ft 377 kts 136°
2026-05-07 20:37 41.18182 28.63955 12935 ft 380 kts 137°
2026-05-07 20:37 41.16264 28.66401 13551 ft 384 kts 137°
2026-05-07 20:37 41.14327 28.68868 14127 ft 388 kts 136°
2026-05-07 20:38 41.12477 28.71502 14640 ft 393 kts 128°
2026-05-07 20:38 41.10924 28.74502 15161 ft 397 kts 123°
2026-05-07 20:38 41.09412 28.77584 15672 ft 400 kts 123°
2026-05-07 20:38 41.07885 28.80689 16180 ft 404 kts 123°
2026-05-07 20:39 41.06345 28.83821 16689 ft 408 kts 123°
2026-05-07 20:39 41.04789 28.86981 17199 ft 411 kts 123°
2026-05-07 20:39 41.03219 28.90167 17714 ft 415 kts 123°
2026-05-07 20:39 41.01492 28.93249 18208 ft 419 kts 131°
2026-05-07 20:40 40.99444 28.96015 18679 ft 423 kts 136°
2026-05-07 20:40 40.97332 28.98754 19122 ft 427 kts 136°
2026-05-07 20:40 40.95205 29.01508 19583 ft 430 kts 136°
2026-05-07 20:40 40.93060 29.04288 20051 ft 433 kts 136°
2026-05-07 20:41 40.90905 29.07083 20520 ft 436 kts 135°
2026-05-07 20:41 40.88734 29.09903 20959 ft 439 kts 135°
2026-05-07 20:41 40.86644 29.12858 21386 ft 442 kts 128°
2026-05-07 20:41 40.84921 29.16219 21799 ft 444 kts 118°
2026-05-07 20:42 40.83626 29.19925 22208 ft 446 kts 109°
2026-05-07 20:42 40.82761 29.23858 22607 ft 447 kts 103°
2026-05-07 20:42 40.81977 29.27848 22998 ft 450 kts 103°
2026-05-07 20:42 40.81183 29.31859 23386 ft 453 kts 103°
2026-05-07 20:43 40.80382 29.35896 23747 ft 456 kts 103°
2026-05-07 20:43 40.79572 29.39951 24078 ft 458 kts 103°
2026-05-07 20:43 40.78754 29.44029 24408 ft 461 kts 103°
2026-05-07 20:43 40.77933 29.48121 24735 ft 463 kts 103°
2026-05-07 20:44 40.77117 29.52181 25051 ft 465 kts 103°
2026-05-07 20:44 40.76288 29.56313 25369 ft 467 kts 103°
2026-05-07 20:44 40.75454 29.60469 25685 ft 470 kts 103°
2026-05-07 20:44 40.74614 29.64645 26005 ft 472 kts 103°
2026-05-07 20:45 40.73813 29.68851 26339 ft 473 kts 98°
2026-05-07 20:45 40.73406 29.73131 26792 ft 469 kts 90°
2026-05-07 20:45 40.73322 29.77423 27073 ft 468 kts 88°
2026-05-07 20:45 40.73246 29.81725 27139 ft 473 kts 88°
2026-05-07 20:46 40.73167 29.86076 27139 ft 477 kts 88°
2026-05-07 20:46 40.73086 29.90450 27138 ft 478 kts 88°
2026-05-07 20:46 40.73002 29.94846 27139 ft 479 kts 88°
2026-05-07 20:46 40.72916 29.99227 27138 ft 479 kts 88°
2026-05-07 20:47 40.72793 30.03612 27138 ft 480 kts 92°
2026-05-07 20:47 40.72280 30.07974 27138 ft 483 kts 101°
2026-05-07 20:47 40.71298 30.12222 27146 ft 485 kts 107°
2026-05-07 20:47 40.70157 30.16430 27342 ft 489 kts 107°
2026-05-07 20:48 40.69007 30.20558 28224 ft 481 kts 107°
2026-05-07 20:48 40.67851 30.24751 28224 ft 492 kts 107°
2026-05-07 20:48 40.66676 30.29029 28227 ft 502 kts 107°
2026-05-07 20:49 40.64267 30.37825 28286 ft 517 kts 107°
2026-05-07 20:49 40.63047 30.42276 28717 ft 517 kts 107°
2026-05-07 20:49 40.61811 30.46712 29135 ft 515 kts 108°
2026-05-07 20:49 40.60567 30.50974 29314 ft 496 kts 108°
2026-05-07 20:50 40.59330 30.55165 28805 ft 488 kts 108°
2026-05-07 20:50 40.58107 30.59318 28045 ft 486 kts 108°
2026-05-07 20:50 40.56944 30.63485 27396 ft 484 kts 103°
2026-05-07 20:50 40.56215 30.67795 27157 ft 483 kts 98°
2026-05-07 20:51 40.55539 30.72054 27142 ft 465 kts 98°
2026-05-07 20:51 40.54884 30.76134 27159 ft 448 kts 98°
2026-05-07 20:51 40.54252 30.80084 27160 ft 439 kts 98°
2026-05-07 20:51 40.53632 30.83996 27159 ft 437 kts 98°
2026-05-07 20:52 40.53017 30.87903 27162 ft 436 kts 98°
2026-05-07 20:52 40.52404 30.91800 27160 ft 436 kts 98°
2026-05-07 20:52 40.51789 30.95701 27174 ft 436 kts 98°
2026-05-07 20:52 40.51171 30.99608 27164 ft 437 kts 98°
2026-05-07 20:53 40.50550 31.03515 27167 ft 437 kts 98°
2026-05-07 20:53 40.49926 31.07425 27169 ft 437 kts 98°
2026-05-07 20:53 40.49301 31.11328 27168 ft 436 kts 98°
2026-05-07 20:53 40.48673 31.15234 27176 ft 438 kts 98°
2026-05-07 20:54 40.48044 31.19141 27185 ft 438 kts 98°
2026-05-07 20:54 40.47413 31.23055 27188 ft 438 kts 98°
2026-05-07 20:54 40.46780 31.26964 27196 ft 438 kts 98°
2026-05-07 20:54 40.46144 31.30871 27197 ft 438 kts 98°
2026-05-07 20:55 40.45504 31.34782 27195 ft 438 kts 98°
2026-05-07 20:55 40.44866 31.38699 27194 ft 439 kts 98°
2026-05-07 20:55 40.44227 31.42610 27191 ft 439 kts 98°
2026-05-07 20:55 40.43587 31.46524 27193 ft 439 kts 98°
2026-05-07 20:56 40.42947 31.50439 27191 ft 439 kts 98°
2026-05-07 20:56 40.42305 31.54355 27202 ft 439 kts 97°
2026-05-07 20:56 40.41661 31.58270 27193 ft 439 kts 97°
2026-05-07 20:56 40.41014 31.62180 27192 ft 439 kts 98°
2026-05-07 20:57 40.40365 31.66099 27191 ft 439 kts 98°
2026-05-07 20:57 40.39718 31.70006 26928 ft 437 kts 98°
2026-05-07 20:57 40.39071 31.73923 26662 ft 448 kts 98°
2026-05-07 20:57 40.38403 31.77997 26422 ft 465 kts 98°
2026-05-07 20:58 40.37707 31.82217 26191 ft 481 kts 98°
2026-05-07 20:58 40.36985 31.86539 25940 ft 487 kts 98°
2026-05-07 20:58 40.36249 31.90888 25682 ft 490 kts 98°
2026-05-07 20:58 40.35505 31.95244 25433 ft 490 kts 98°
2026-05-07 20:59 40.34770 31.99614 25177 ft 489 kts 97°
2026-05-07 20:59 40.34379 32.04009 24966 ft 484 kts 88°
2026-05-07 20:59 40.34490 32.08382 24546 ft 475 kts 79°
2026-05-07 20:59 40.35100 32.12592 24092 ft 466 kts 70°
2026-05-07 21:00 40.36161 32.16555 23609 ft 457 kts 62°
2026-05-07 21:00 40.37586 32.20246 23091 ft 451 kts 57°
2026-05-07 21:00 40.39055 32.23862 22565 ft 448 kts 57°
2026-05-07 21:00 40.40501 32.27465 22058 ft 445 kts 58°
2026-05-07 21:01 40.41928 32.31047 21541 ft 441 kts 58°
2026-05-07 21:01 40.43337 32.34598 21037 ft 437 kts 59°
2026-05-07 21:01 40.44720 32.38079 20546 ft 434 kts 59°
2026-05-07 21:01 40.46112 32.41581 20032 ft 431 kts 59°
2026-05-07 21:02 40.47495 32.45048 19491 ft 427 kts 59°
2026-05-07 21:02 40.48871 32.48491 19047 ft 424 kts 59°
2026-05-07 21:02 40.50238 32.51916 18628 ft 422 kts 60°
2026-05-07 21:02 40.51593 32.55321 18175 ft 419 kts 60°
2026-05-07 21:03 40.52938 32.58708 17700 ft 416 kts 60°
2026-05-07 21:03 40.54268 32.62071 17227 ft 414 kts 60°
2026-05-07 21:03 40.55590 32.65420 16764 ft 412 kts 60°
2026-05-07 21:03 40.56908 32.68755 16486 ft 410 kts 60°
2026-05-07 21:04 40.58226 32.72079 16232 ft 409 kts 60°
2026-05-07 21:04 40.59538 32.75393 15986 ft 407 kts 60°
2026-05-07 21:04 40.60844 32.78697 15741 ft 407 kts 60°
2026-05-07 21:04 40.61706 32.80886 15575 ft 406 kts 60°
2026-05-07 21:05 40.62997 32.84166 15363 ft 398 kts 60°
2026-05-07 21:05 40.64237 32.87334 15300 ft 379 kts 60°
2026-05-07 21:05 40.65410 32.90337 15314 ft 360 kts 60°
2026-05-07 21:05 40.66527 32.93198 15312 ft 342 kts 60°
2026-05-07 21:06 40.67589 32.95920 15315 ft 326 kts 60°
2026-05-07 21:06 40.68611 32.98534 15157 ft 318 kts 60°
2026-05-07 21:06 40.69616 33.01099 14916 ft 313 kts 60°
2026-05-07 21:06 40.70607 33.03633 14676 ft 309 kts 60°
2026-05-07 21:07 40.71585 33.06131 14432 ft 304 kts 60°
2026-05-07 21:07 40.72550 33.08595 14194 ft 301 kts 61°
2026-05-07 21:07 40.73503 33.11031 13959 ft 297 kts 61°
2026-05-07 21:07 40.74436 33.13449 13696 ft 294 kts 64°
2026-05-07 21:08 40.74814 33.16062 13416 ft 293 kts 96°
2026-05-07 21:08 40.74091 33.18526 13154 ft 290 kts 130°
2026-05-07 21:08 40.72507 33.20057 12897 ft 283 kts 164°
2026-05-07 21:08 40.70600 33.20200 12638 ft 273 kts 195°
2026-05-07 21:09 40.68787 33.19520 12400 ft 270 kts 199°
2026-05-07 21:09 40.66991 33.18805 12135 ft 269 kts 199°
2026-05-07 21:09 40.65206 33.18093 11886 ft 267 kts 199°
2026-05-07 21:09 40.63434 33.17385 11633 ft 266 kts 199°
2026-05-07 21:10 40.61656 33.16743 11382 ft 265 kts 193°
2026-05-07 21:10 40.59824 33.16438 11141 ft 265 kts 187°
2026-05-07 21:10 40.57987 33.16312 10896 ft 264 kts 185°
2026-05-07 21:10 40.56159 33.16239 10661 ft 261 kts 184°
2026-05-07 21:11 40.54354 33.16167 10417 ft 258 kts 185°
2026-05-07 21:11 40.52573 33.16081 10181 ft 254 kts 185°
2026-05-07 21:11 40.49147 33.15871 9782 ft 241 kts 185°
2026-05-07 21:12 40.47505 33.15754 9641 ft 232 kts 186°
2026-05-07 21:12 40.45897 33.15637 9620 ft 231 kts 186°
2026-05-07 21:12 40.44307 33.15517 9174 ft 229 kts 186°
2026-05-07 21:12 40.42735 33.15398 8682 ft 223 kts 186°
2026-05-07 21:13 40.41199 33.15285 8197 ft 219 kts 186°
2026-05-07 21:13 40.39695 33.15172 7723 ft 215 kts 186°
2026-05-07 21:13 40.38229 33.15060 7427 ft 203 kts 186°
2026-05-07 21:13 40.36861 33.14957 7145 ft 194 kts 186°
2026-05-07 21:14 40.35563 33.14860 6815 ft 180 kts 187°
2026-05-07 21:14 40.34345 33.14769 6454 ft 172 kts 187°
2026-05-07 21:14 40.33142 33.14675 5969 ft 173 kts 186°
2026-05-07 21:14 40.31962 33.14585 5702 ft 167 kts 186°
2026-05-07 21:15 40.30824 33.14499 5607 ft 160 kts 186°
2026-05-07 21:15 40.29727 33.14414 5464 ft 156 kts 186°
2026-05-07 21:15 40.28653 33.14305 5539 ft 155 kts 193°
2026-05-07 21:15 40.27695 33.13734 5559 ft 151 kts 218°
2026-05-07 21:16 40.26815 33.12966 5557 ft 151 kts 216°
2026-05-07 21:16 40.25950 33.12182 5557 ft 151 kts 218°
2026-05-07 21:16 40.25095 33.11382 5559 ft 151 kts 218°
2026-05-07 21:16 40.24240 33.10573 5522 ft 152 kts 219°
2026-05-07 21:17 40.23388 33.09761 5396 ft 151 kts 218°
2026-05-07 21:17 40.22539 33.08950 5222 ft 151 kts 218°
2026-05-07 21:17 40.21691 33.08139 5038 ft 151 kts 218°
2026-05-07 21:17 40.20847 33.07332 4842 ft 150 kts 217°
2026-05-07 21:18 40.20005 33.06527 4625 ft 150 kts 217°
2026-05-07 21:18 40.19161 33.05720 4405 ft 151 kts 217°
2026-05-07 21:18 40.18312 33.04909 4191 ft 152 kts 216°
2026-05-07 21:18 40.17458 33.04093 3977 ft 152 kts 216°
2026-05-07 21:19 40.16604 33.03278 3780 ft 151 kts 215°
2026-05-07 21:19 40.15755 33.02468 3575 ft 151 kts 214°
2026-05-07 21:19 40.14913 33.01663 3372 ft 149 kts 214°
2026-05-07 21:19 40.14077 33.00867 3178 ft 148 kts 214°
2026-05-07 21:20 40.13319 33.00156 3126 ft 106 kts 216°
2026-05-07 21:20 40.12953 32.99798 3123 ft 44 kts 217°
2026-05-07 21:20 40.12706 32.99565 3122 ft 38 kts 213°
2026-05-07 21:20 40.12592 32.99610 3122 ft 10 kts 95°
2026-05-07 21:21 40.12591 32.99648 3122 ft 0 kts 91°
2026-05-07 21:22 40.12591 32.99649 3122 ft 1 kts 91°
2026-05-07 21:22 40.12590 32.99662 3122 ft 2 kts 95°
2026-05-07 21:22 40.12585 32.99686 3122 ft 3 kts 112°
2026-05-07 21:22 40.12563 32.99706 3122 ft 5 kts 164°
2026-05-07 21:23 40.12528 32.99691 3122 ft 6 kts 209°
2026-05-07 21:23 40.12484 32.99653 3121 ft 9 kts 219°
2026-05-07 21:23 40.12426 32.99597 3120 ft 12 kts 216°
2026-05-07 21:23 40.12353 32.99529 3120 ft 14 kts 216°
2026-05-07 21:24 40.12278 32.99459 3119 ft 12 kts 214°
2026-05-07 21:24 40.12207 32.99389 3118 ft 13 kts 217°
2026-05-07 21:24 40.12135 32.99320 3117 ft 13 kts 216°
2026-05-07 21:24 40.12054 32.99244 3116 ft 16 kts 216°
2026-05-07 21:25 40.11957 32.99152 3114 ft 18 kts 216°
2026-05-07 21:25 40.11950 32.99145 3115 ft 0 kts 217°
2026-05-07 21:25 40.11945 32.99140 3114 ft 2 kts 217°
2026-05-07 21:25 40.11933 32.99128 3114 ft 1 kts 216°
2026-05-07 21:26 40.11922 32.99117 3114 ft 3 kts 217°
2026-05-07 21:26 40.11898 32.99094 3114 ft 5 kts 216°
2026-05-07 21:26 40.11863 32.99061 3114 ft 7 kts 216°
2026-05-07 21:26 40.11809 32.99050 3113 ft 9 kts 164°
2026-05-07 21:27 40.11754 32.99106 3113 ft 11 kts 148°
2026-05-07 21:27 40.11718 32.99193 3113 ft 13 kts 77°
2026-05-07 21:27 40.11749 32.99309 3113 ft 14 kts 72°
2026-05-07 21:27 40.11774 32.99442 3113 ft 15 kts 77°
2026-05-07 21:28 40.11780 32.99498 3113 ft 0 kts 85°
2026-05-07 21:28 40.11781 32.99498 3113 ft 0 kts 85°
2026-05-07 21:28 40.11781 32.99507 3113 ft 2 kts 86°
2026-05-07 21:28 40.11780 32.99531 3113 ft 3 kts 101°
2026-05-07 21:29 40.11760 32.99553 3113 ft 4 kts 160°
2026-05-07 21:29 40.11725 32.99560 3113 ft 3 kts 175°
2026-05-07 21:29 40.11716 32.99561 3113 ft 0 kts 175°